GW1708 Weather Reports


Display with metric or nautical units.
time (UTC)temp
F
wind
direction
speed
MPH
gust
MPH
rain 1hr
in
rain 24hr
in
rain mn
in
humidity
%
barometer
mb
20260505180022 55 96 0.0 0.0 0.00 0.00 0.00 100 833.0
20260505174528 55 312 0.0 0.0 0.00 0.00 0.00 100 832.7
20260505173019 54 306 0.0 0.0 0.00 0.00 0.00 100 832.5
20260505171518 53 311 0.0 0.0 0.00 0.00 0.00 100 832.5
20260505170020 52 311 0.0 0.0 0.00 0.00 0.00 100 832.3
20260505164518 52 305 0.0 0.0 0.00 0.00 0.00 100 832.2
20260505163021 53 316 0.0 0.0 0.00 0.00 0.00 100 832.2
20260505161517 53 310 0.0 0.0 0.00 0.00 0.00 100 831.9
20260505153016 52 313 0.0 0.0 0.00 0.00 0.00 100 831.8
20260505151518 52 309 0.0 0.0 0.00 0.00 0.00 100 831.7
20260505124511 52 305 0.0 0.0 0.00 0.00 0.00 100 831.7
20260505123007 53 306 0.0 0.0 0.00 0.00 0.00 100 831.9
20260505121512 53 312 0.0 0.0 0.00 0.00 0.00 100 832.0
20260505120004 52 313 0.0 0.0 0.00 0.00 0.00 100 832.2
20260505114501 53 296 0.0 0.0 0.00 0.00 0.00 100 832.2
20260505113101 53 296 0.0 0.0 0.00 0.00 0.00 100 832.2
20260505111557 54 321 0.0 0.0 0.00 0.00 0.00 100 832.5
20260505101555 54 292 0.0 0.0 0.00 0.00 0.00 100 833.2
20260505100048 54 292 0.0 0.0 0.00 0.00 0.00 100 833.2
20260505094547 54 292 0.0 0.0 0.00 0.00 0.00 100 833.3
20260505093047 54 287 0.0 0.0 0.00 0.00 0.00 100 833.5
20260505091547 54 311 0.0 0.0 0.00 0.00 0.00 100 833.6
20260505090058 54 304 0.0 0.0 0.00 0.00 0.00 100 833.5
20260505084550 54 304 0.0 0.0 0.00 0.00 0.00 100 833.6
20260505083052 54 304 0.0 0.0 0.00 0.00 0.00 100 833.6
20260505081547 54 300 0.0 0.0 0.00 0.00 0.00 100 833.6
20260505080046 54 236 0.0 4.0 0.00 0.00 0.00 100 833.7
20260505074544 54 229 0.0 0.0 0.00 0.00 0.00 100 833.7
20260505073044 54 315 0.0 0.0 0.00 0.00 0.00 100 833.9
20260505071542 55 316 0.0 0.0 0.00 0.00 0.00 100 833.8
20260505070045 55 316 0.0 0.0 0.00 0.00 0.00 100 833.7
20260505064541 56 223 0.0 0.0 0.00 0.00 0.00 100 833.6
20260505063042 55 223 0.0 0.0 0.00 0.00 0.00 100 833.5
20260505061546 56 223 0.0 0.0 0.00 0.00 0.00 100 833.4
20260505060040 56 223 0.0 0.0 0.00 0.00 0.00 100 833.4
20260505054544 55 223 0.0 0.0 0.00 0.00 0.00 100 833.3
20260505053045 55 225 0.0 1.0 0.00 0.00 0.00 100 833.1
20260505051539 55 215 0.0 0.0 0.00 0.00 0.00 100 833.1
20260505041538 56 203 0.0 0.0 0.00 0.00 0.00 100 833.0
20260505040037 56 196 0.0 1.0 0.00 0.00 0.00 100 832.9
20260505034536 56 225 0.0 0.0 0.00 0.00 0.00 100 833.0
20260505033100 56 183 0.0 0.0 0.00 0.00 0.00 100 833.0
20260505031538 56 232 0.0 0.0 0.00 0.00 0.00 100 832.9
20260505030035 56 192 0.0 0.0 0.00 0.00 0.00 100 832.8
20260505024534 57 170 0.0 0.0 0.00 0.00 0.00 100 832.6
20260505023042 57 202 0.0 3.0 0.00 0.00 0.00 100 832.6
20260505021533 57 199 0.0 1.0 0.00 0.00 0.00 100 832.6
20260505020033 57 171 0.0 2.0 0.00 0.00 0.00 100 832.8
20260505014534 59 212 0.0 1.0 0.00 0.00 0.00 97 832.8
20260505013032 60 157 0.0 0.0 0.00 0.00 0.00 96 833.0
20260505011531 62 153 0.0 0.0 0.00 0.00 0.00 92 833.1
20260505010032 64 199 0.0 0.0 0.00 0.00 0.00 93 833.3
20260505004541 61 222 0.0 0.0 0.00 0.00 0.00 96 833.3
20260505003029 59 135 0.0 0.0 0.00 0.00 0.00 98 833.3
20260505001528 59 211 0.0 1.0 0.00 0.00 0.00 97 833.3
20260505000028 59 207 0.0 0.0 0.00 0.00 0.00 96 833.4
20260504234535 60 219 0.0 0.0 0.00 0.00 0.00 98 833.5
20260504233027 60 123 0.0 0.0 0.00 0.00 0.00 100 833.5
20260504231538 58 193 0.0 0.0 0.00 0.00 0.00 100 833.7
20260504230026 57 304 0.0 0.0 0.00 0.00 0.00 100 833.7
20260504224528 58 322 0.0 0.0 0.00 0.00 0.00 100 833.8
20260504223025 58 289 0.0 0.0 0.00 0.00 0.00 100 834.0
20260504221525 57 317 0.0 0.0 0.00 0.00 0.00 100 833.9
20260504220025 58 335 0.0 1.0 0.00 0.00 0.00 100 834.0
20260504214533 58 308 0.0 0.0 0.00 0.00 0.00 99 833.9
20260504213029 60 297 0.0 0.0 0.00 0.00 0.00 98 834.0
20260504211522 58 280 0.0 0.0 0.00 0.00 0.00 96 834.1
20260504210022 60 195 0.0 0.0 0.00 0.00 0.00 98 834.0
20260504204550 60 205 0.0 0.0 0.00 0.00 0.00 93 834.1
20260504203027 62 164 0.0 6.0 0.00 0.00 0.00 92 834.0
20260504201520 62 134 0.0 3.0 0.00 0.00 0.00 93 834.1
20260504200028 62 230 0.0 0.0 0.00 0.00 0.00 93 834.1
20260504194520 62 163 0.0 0.0 0.00 0.00 0.00 91 834.1
20260504193022 60 125 0.0 1.0 0.00 0.00 0.00 94 834.2
20260504191515 60 209 0.0 0.0 0.00 0.00 0.00 95 834.1
20260504190014 59 149 0.0 0.0 0.00 0.00 0.00 97 834.1
20260504184512 59 134 0.0 0.0 0.00 0.00 0.00 96 834.1
20260504183010 59 157 0.0 0.0 0.00 0.00 0.00 97 834.0
20260504181509 57 153 0.0 0.0 0.00 0.00 0.00 99 833.9